Observations for Trim Market St
| Time | AQI | Temp °C | Hum % | Pres Pa | CO μg/m³ | H₂S μg/m³ | NO μg/m³ | NO₂ μg/m³ | O₃ μg/m³ | SO₂ μg/m³ | PM1 μg/m³ | PM2.5 μg/m³ | PM10 μg/m³ |
|---|---|---|---|---|---|---|---|---|---|---|---|---|---|
| Saturday 15 August 2026 | |||||||||||||
| 00:45 | 2 | 18 | 70 | 55,347 | 0.1 | 0 | 1.68 | 11.56 | 44.42 | 0 | 0 | 1.12 | 2.51 |
| 00:38 | 2 | 18 | 70 | 55,247 | 0.06 | 0 | 1.37 | 6.27 | 51.91 | 0 | 0 | 1.11 | 2.52 |
| 00:36 | 2 | 18 | 70 | 55,166 | 0.09 | 0 | 1.38 | 6.63 | 52.78 | 0 | 0 | 1.11 | 2.52 |
| 00:35 | 2 | 18 | 70 | 55,128 | 0.07 | 0 | 1.39 | 6.39 | 52.35 | 0 | 0 | 1.11 | 2.52 |
| 00:34 | 2 | 18 | 70 | 55,073 | 0.06 | 0 | 1.4 | 5.59 | 52.25 | 0 | 0 | 1.1 | 2.53 |
| 00:33 | 2 | 18.1 | 70 | 55,018 | 0.08 | 0 | 1.41 | 6.34 | 53.68 | 0 | 0 | 1.1 | 2.53 |
| 00:32 | 2 | 18 | 70 | 54,955 | 0.07 | 0 | 1.4 | 5.86 | 50.81 | 0 | 0 | 1.1 | 3.15 |
| 00:31 | 2 | 18 | 70 | 54,893 | 0.07 | 0 | 1.39 | 8.66 | 54.28 | 0 | 0 | 1.1 | 2.53 |
| 00:29 | 2 | 18 | 70 | 54,752 | 0.08 | 0 | 1.72 | 10.01 | 44.44 | 0 | 0 | 1.09 | 2.53 |
| 00:28 | 2 | 18 | 70 | 54,677 | 0.11 | 0 | 1.47 | 11.14 | 44.69 | 0 | 0 | 1.09 | 3.16 |
| 00:26 | 2 | 18 | 70 | 54,527 | 0.12 | 0 | 1.51 | 8.69 | 47.63 | 0 | 0 | 1.09 | 2.54 |
| 00:23 | 2 | 18 | 70 | 54,353 | 0.09 | 0 | 1.39 | 12.98 | 52.32 | 0 | 0 | 1.09 | 2.54 |
| 00:19 | 2 | 18 | 70 | 54,268 | 0.11 | 0 | 1.64 | 12.33 | 53.53 | 0 | 0 | 1.09 | 2.54 |
| 00:18 | 2 | 18 | 70 | 54,253 | 0.11 | 0 | 1.45 | 13.56 | 53.71 | 0 | 0 | 1.57 | 3.16 |
| 00:17 | 2 | 18 | 70 | 54,254 | 0.13 | 0 | 1.49 | 17.78 | 46.31 | 0 | 0 | 1.09 | 2.54 |
| 00:08 | 2 | 18 | 70 | 54,340 | 0.09 | 0 | 1.36 | 10.69 | 55.77 | 0 | 0 | 1.1 | 2.53 |
| 00:07 | 2 | 18 | 70 | 54,379 | 0.07 | 0 | 1.34 | 12.54 | 56.21 | 0 | 0 | 1.58 | 3.15 |
| 00:06 | 2 | 18.1 | 70 | 54,414 | 0.09 | 0 | 1.33 | 10.08 | 54.67 | 0 | 0 | 1.1 | 2.53 |
| 00:05 | 2 | 18 | 70 | 54,449 | 0.07 | 0 | 1.35 | 7.63 | 56.27 | 0 | 0 | 1.1 | 3.15 |
| 00:04 | 2 | 18.1 | 70 | 54,460 | 0.12 | 0 | 1.35 | 8.54 | 54.84 | 0 | 0 | 1.1 | 2.53 |